This demonstration page uses our WeatherBlox Daily Observations layout. Learn more.

38.88101, -77.10428

Hourly Observations for August 5, 2018

Temp ( °F °C ) Dew Point ( °F °C ) Humidity (%) Winds ( mph kmh ) Pressure ( in mb ) Visibility ( mi km ) Precip ( " mm )
12:52 am 00:52 Mostly Clear 76 24.4 72 22.2 88 88 S 5 7 30.16 1021 7 11.26538 0 0
1:52 am 01:52 Clear 76 24.4 71 21.7 85 85 S 5 7 30.16 1021 10 16.0934 0 0
2:52 am 02:52 Mostly Clear 76 24.4 71 21.7 85 85 S 3 6 30.16 1021 10 16.0934 0 0
3:52 am 03:52 Clear 75 23.9 71 21.7 88 88 S 3 6 30.16 1021 10 16.0934 0 0
4:52 am 04:52 Mostly Clear 74 23.3 72 22.2 94 94 S 3 6 30.17 1022 7 11.26538 0 0
5:52 am 05:52 Mostly Clear 74 23.3 72 22.2 94 94 Calm 30.16 1022 8 12.87472 0 0
6:52 am 06:52 Mostly Sunny 74 23.3 72 22.2 94 94 S 3 6 30.17 1022 7 11.26538 0 0
7:52 am 07:52 Mostly Sunny 77 25 73 22.8 88 88 SSW 3 6 30.19 1022 10 16.0934 0 0
8:52 am 08:52 Partly Cloudy 79 26.1 73 22.8 82 82 Calm 30.2 1023 10 16.0934 0 0
9:52 am 09:52 Partly Cloudy 82 27.8 73 22.8 74 74 SSE 5 7 30.2 1023 10 16.0934 0 0
10:52 am 10:52 Partly Cloudy 85 29.4 73 22.8 68 68 Calm 30.19 1023 10 16.0934 0 0
11:52 am 11:52 Partly Cloudy 87 30.6 72 22.2 61 61 ESE 3 6 30.19 1022 10 16.0934 0 0
12:52 pm 12:52 Mostly Cloudy 90 32.2 72 22.2 56 56 SSE 3 6 30.17 1022 10 16.0934 0 0
1:52 pm 13:52 Partly Cloudy 89 31.7 71 21.7 55 55 S 8 13 30.16 1021 10 16.0934 0 0
2:52 pm 14:52 Partly Cloudy 90 32.2 71 21.7 54 54 S 8 13 30.14 1021 10 16.0934 0 0
3:02 pm 15:02 Partly Cloudy with Nearby Thunderstorms 90 32.2 70 21.1 52 52 S 9 15 30.15 1021 10 16.0934 0 0
3:27 pm 15:27 Partly Cloudy with Thunderstorms 90 32.2 69 20.6 50 50 SSE 10 17 30.12 1020 10 16.0934 0 0
3:39 pm 15:39 Partly Cloudy with Nearby Thunderstorms 90 32.2 69 20.6 50 50 S 9 15 30.12 1020 10 16.0934 0 0
3:52 pm 15:52 Partly Cloudy with Thunderstorms 90 32.2 68 20 48 48 S 10 17 30.12 1020 10 16.0934 0 0
4:26 pm 16:26 Partly Cloudy with Thunderstorms 91 32.8 69 20.6 49 49 S 9 15 30.12 1020 10 16.0934 0 0
4:52 pm 16:52 Mostly Cloudy with Thunderstorms 89 31.7 68 20 50 50 S 8 13 30.11 1020 10 16.0934 0 0
5:23 pm 17:23 Mostly Cloudy with Nearby Thunderstorms 88 31.1 67 19.4 50 50 S 9 15 30.12 1020 10 16.0934 0 0
5:33 pm 17:33 Mostly Cloudy 87 30.6 68 20 53 53 S 9 15 30.12 1020 10 16.0934 0 0
5:52 pm 17:52 Cloudy with Nearby Thunderstorms 86 30 69 20.6 57 57 SW 10 17 30.12 1020 10 16.0934 0 0
6:01 pm 18:01 Cloudy 88 31.1 68 20 52 52 WSW 13 20 30.12 1020 10 16.0934 0 0
6:52 pm 18:52 Mostly Cloudy 84 28.9 72 22.2 67 67 S 10 17 30.12 1020 10 16.0934 0 0.0254
7:52 pm 19:52 Mostly Cloudy 82 27.8 73 22.8 74 74 S 8 13 30.13 1020 10 16.0934 0 0
8:52 pm 20:52 Mostly Cloudy 80 26.7 72 22.2 76 76 S 6 9 30.14 1021 10 16.0934 0 0
9:52 pm 21:52 Cloudy 79 26.1 72 22.2 79 79 S 5 7 30.15 1021 10 16.0934 0 0
10:52 pm 22:52 Partly Cloudy 78 25.6 71 21.7 79 79 S 7 11 30.14 1021 10 16.0934 0 0
11:52 pm 23:52 Mostly Cloudy 78 25.6 71 21.7 79 79 S 7 11 30.15 1021 10 16.0934 0 0

Powered by AerisWeather